Location: Mount Cross
(36.6390°N, 79.4878°W)
Time: 15:01:24
(UTC+00:00)

Tiros 1 - Pass Details

Date: 03 April 2023
Orbit: 627 x 661 km, 48.4° (Epoch: 02 June)

Event Time Altitude Azimuth Distance (km) Brightness Sun altitude
Exits shadow 08:51:13 24° 333° (NNW) 1,360 8.8 -25.6°
Maximum altitude 08:51:48 25° 345° (NNW) 1,340 8.8 -25.5°
Drops below altitude 10° 08:55:45 10° 40° (NE) 2,077 10.6 -24.8°
Sets 08:58:29 0° 54° (NE) 2,991 11.9 -24.3°
